Regional Weather Roundup
Issued by NWS

Home | Current Version | Previous Version | Text Only | Print | Product List | Glossary On
Versions: 1 2 3 4 5 6 7 8 9 10 11 12 13 14 15 16 17 18 19 20 21 22 23 24 25 26 27 28 29 30 31 32 33 34 35 36 37 38 39 40 41 42 43 44 45 46 47 48 49 50
000
ASUS43 KMPX 011010
RWRMN
WEATHER ROUNDUP FOR MINNESOTA
NATIONAL WEATHER SERVICE TWIN CITIES/CHANHASSEN MN
500 AM CDT SUN MAY 01 2016


NOTE: "FAIR" INDICATES FEW OR NO CLOUDS BELOW 12,000 FEET WITH NO
SIGNIFICANT WEATHER AND/OR OBSTRUCTIONS TO VISIBILITY. N/A MEANS
CURRENT SKY AND/OR WEATHER CONDITIONS ARE NOT AVAILABLE.

MNZ060>063-068>070-011100-
   Twin Cities Metro

CITY           SKY/WX    TMP DP  RH WIND       PRES   REMARKS
TWIN CITIES    CLOUDY    43  32  65 N9        30.13S
ST PAUL        MOCLDY    43  33  68 N8        30.15R
CRYSTAL        MOCLDY    42  32  67 N7        30.14R
BLAINE         MOCLDY    41  34  75 N7        30.15S
EDEN PRAIRIE   CLOUDY    42  31  64 N9        30.12S
SOUTH ST PAUL  CLOUDY    44  32  64 N6        30.13S
LAKE ELMO      FAIR      41  34  75 N6        30.14S
$$
MNZ001>005-007-008-013>017-022>024-027-028-011100-
   Northwest Minnesota

CITY           SKY/WX    TMP DP  RH WIND       PRES   REMARKS
BEMIDJI        CLEAR     26  25  94 CALM      30.27R
HALLOCK        CLEAR     37  27  65 N5        30.30R
ROSEAU         CLEAR     36  28  75 CALM      30.29S
WARROAD        PTCLDY    34  30  86 CALM      30.30R
THIEF RVR FALL CLEAR     36  25  64 CALM      30.30R
CROOKSTON      CLEAR     39  27  60 E7        30.29R
FOSSTON        CLEAR     30  23  74 CALM      30.28S
DETROIT LAKES  CLEAR     39  32  75 NE3       30.27R
MOORHEAD       CLEAR     39  28  65 E5        30.28R
PARK RAPIDS    CLEAR     37  28  70 N5        30.25R
MAHNOMEN       FAIR      37  30  76 CALM      30.27R
$$
MNZ006-009>011-018-025>026-011100-
   North Central Minnesota

CITY           SKY/WX    TMP DP  RH WIND       PRES   REMARKS
BAUDETTE       CLEAR     35  26  69 CALM      30.28R
FLAG ISLAND    CLEAR     43  32  65 N3        30.29R
INTL FALLS     CLEAR     32  27  81 E5        30.28R WCI  27
WASKISH        CLEAR     32  28  86 CALM      30.28R
BIG FORK       CLEAR     27  25  93 CALM      30.27S
LONGVILLE      CLEAR     34  30  86 NE3       30.25R
GRAND RAPIDS   CLEAR     30  25  80 CALM      30.26S
CRANE LAKE     CLEAR     25  23  93 CALM      30.30S
ORR            CLEAR     28  25  86 CALM      30.25S
COOK           CLEAR     25  25 100 CALM      30.27S
WALKER         FAIR      29  26  89 CALM      30.26R
$$
MNZ012-019>021-037-011100-
   Northeast Minnesota

CITY           SKY/WX    TMP DP  RH WIND       PRES   REMARKS
DULUTH         CLEAR     34  27  75 N3        30.22R
ELY            CLEAR     27  25  93 CALM      30.26R
HIBBING        CLEAR     23  22  96 NW5       30.25R WCI  17
EVELETH        CLEAR     27  25  93 CALM      30.26R
DULUTH HARBOR  CLOUDY    39  34  81 NE10      30.24R
TWO HARBORS    CLEAR     37  28  70 N6        30.21S
SILVER BAY     CLEAR     30  27  86 CALM      30.22S
GRAND MARAIS     N/A     40  30  67 NE9G17    30.25R
G MARAIS ARPRT CLEAR     30  25  80 N8        30.23S WCI  23
$$
MNZ029>031-032-039>041-046>048-054>057-064-011100-
   West Central Minnesota

CITY           SKY/WX    TMP DP  RH WIND       PRES   REMARKS
FERGUS FALLS   CLEAR     37  28  70 NE3       30.23S
WHEATON        CLEAR     36  30  80 N6        30.25R
MORRIS         CLEAR     34  27  75 N8        30.20R WCI  27
ALEXANDRIA     CLEAR     36  27  69 NE9       30.21R
ELBOW LAKE     FAIR      37  30  74 E9        30.22S
WADENA         PTCLDY    34  27  75 N7        30.23R WCI  28
GLENWOOD       CLOUDY    36  28  75 NE12      30.19S
APPLETON       CLOUDY    37  28  70 N7        30.19R
BENSON         CLOUDY    37  28  70 E8        30.18S
ORTONVILLE     CLOUDY    36  28  75 NE7       30.20R
MADISON        MOCLDY    37  30  75 N9        30.18S
WILLMAR        FAIR      39  30  70 NE12      30.18R
$$
MNZ033>034-036-042>043-049>051-058-059-011100-
   Central Minnesota

CITY           SKY/WX    TMP DP  RH WIND       PRES   REMARKS
ST CLOUD       PTCLDY    38  30  73 N5        30.18R
SAUK CENTRE    FAIR      35  28  75 N6        30.20R WCI  30
PAYNESVILLE    CLOUDY    36  29  78 NE9       30.18S
AITKIN         CLEAR     34  27  75 N5        30.21S WCI  30
PINE RIVER     CLEAR     34  28  80 N8        30.27R WCI  27
BRAINERD       CLEAR     33  27  78 NE5       30.22S WCI  29
STAPLES        CLEAR     34  27  75 N6        30.23R WCI  29
LONG PRAIRIE   FAIR      36  28  75 N8        30.21R
LITTLE FALLS   CLOUDY    34  28  80 CALM      30.21R
LITCHFIELD     CLOUDY    39  34  81 N6        30.17R
BUFFALO        CLOUDY    38  31  75 N6        30.17S
MAPLE LAKE     CLOUDY    38  32  78 N6        30.18R
HUTCHINSON     CLEAR     41  33  74 N13       30.15S
$$
MNZ037-044-045-052-053-011100-
   East Central Minnesota

CITY           SKY/WX    TMP DP  RH WIND       PRES   REMARKS
PRINCETON        N/A     37  30  75 N8        30.19R
MORA           CLOUDY    36  30  80 NE6       30.21R
CAMBRIDGE      PTCLDY    39  30  70 N8        30.16R
RUSH CITY      MOCLDY    37  31  79 NE9       30.18S
MOOSE LAKE     CLOUDY    36  30  80 NE6       30.19S
HINCKLEY       FAIR      36  32  87 N9        30.20R
CLOQUET        CLEAR     32  27  80 N5        30.21S WCI  27
MCGREGOR       CLEAR     36  30  80 N7        30.23R
$$
MNZ071>073-080-081-089-090-097-098-011100-
   Southwest Minnesota

CITY           SKY/WX    TMP DP  RH WIND       PRES   REMARKS
MONTEVIDEO     CLOUDY    36  30  80 NE7       30.19R
GRANITE FALLS  PTCLDY    40  32  74 N10       30.17S
CANBY          CLOUDY    40  34  77 N7        30.19R
MARSHALL       CLOUDY    40  33  76 N9        30.16R
REDWOOD FALLS  CLOUDY    41  30  65 N7        30.14R
OLIVIA         CLOUDY    37  30  75 NE10      30.14S
PIPESTONE      CLOUDY    41  37  87 NE7       30.11R
WINDOM         LGT RAIN  41  39  93 N10       30.10S
WORTHINGTON    CLOUDY    41  39  93 NE17      30.09R
JACKSON        CLOUDY    41  39  93 NE14      30.08S
TRACY          CLOUDY    41  36  81 NE7       30.13S
SLAYTON        DRIZZLE   40  39  99 NE6       30.12S
$$
MNZ065>067-074>077-082>085-091>093-011100-
   South Central Minnesota

CITY           SKY/WX    TMP DP  RH WIND       PRES   REMARKS
MANKATO        CLOUDY    43  36  75 N9        30.10S
NEW ULM        CLOUDY    41  34  75 NE8       30.12S
ST JAMES       LGT RAIN  37  36  93 N9        30.11F
FAIRMONT       CLOUDY    43  36  75 NE12      30.08R
GLENCOE        CLOUDY    41  35  78 N8        30.13S
FARIBAULT      CLOUDY    43  37  81 N6        30.10S
OWATONNA       CLOUDY    43  39  87 N8        30.08F
WASECA         CLOUDY    41  37  87 N9        30.10S
ALBERT LEA     CLOUDY    43  43 100 NE9       30.06S
$$
MNZ078>079-086>088-094>096-011100-
   Southeast Minnesota

CITY           SKY/WX    TMP DP  RH WIND       PRES   REMARKS
ROCHESTER      CLOUDY    42  40  92 NE10      30.06S
RED WING       CLOUDY    46  34  61 NE7       30.10R
STANTON        CLOUDY    44  37  78 N7        30.09F
DODGE CENTER   LGT RAIN  41  41 100 N6        30.07S
WINONA         CLOUDY    43  41  93 N3        30.08S
AUSTIN         CLOUDY    43  37  81 NE9       30.05S
PRESTON        CLOUDY    42  37  84 NE12      30.05S
$$
ABBREVIATIONS USED IN REMARKS
   TC - TEMPERATURES IN CELSIUS
  WCI - WIND CHILL INDEX
   HX - HEAT INDEX
  VSB - VISIBILITY
$$




USA.gov is the U.S. government's official web portal to all federal, state and local government web resources and services.